Content
SEND FEEDBACK

Daily
Averages
Monthly
Summary
United States of America

MERIZO, GUAM


Home > North America > United States > Guam
Elevation: 10 feet     Latitude: 13 14N     Longitude: 144 39E

WEATHER
 
SELECT A DAY
Number of Records: 352,517;   Date Range: 1/1/95 - 10/30/14
 
SHARE

PRINT THIS DATA

[ ← Previous Day ]
WEATHER ALMANAC - MAY 12, 2013
[ Next Day → ]
[ °C ]   °F
Weather ElementAverageHighLow
Temperature80.3 °F84.9 °F (11:55 am)76.1 °F (10:55 pm)
Dewpoint75.2 °F77 °F (8:42 am)72 °F (8:55 pm)
Humidity84.9 %94 % (12:33 am)71 % (4:55 pm)
Barometer29.85 in29.89 in (10:19 pm)29.80 in (3:55 pm)
Wind Speed8.4 mph16.1 mph (10:19 pm)
Wind Gust27.6 mph (10:19 pm)
Weather ElementAverage
Visibility9.7 mi
Wind DirectionE (88.2 °)

Weather ElementTotal
Precipitation0.01 in
Cooling Degree Days15.5 (Base 65)
Growing Degree Days30.5 (Base 50)
Averaged from 65 records on May 12, 2013
WEATHER CONDITIONS BREAKOUT
WIND DIRECTION BREAKOUT
WEATHER BY HOUR - MAY 12, 2013
[ °C ]   °F
Local TimeTemperatureDewpointHumidityBarometerVisibilityWind DirectionWind SpeedGust SpeedPrecipitationEventsConditions
12:33 AM77.0 °F75.2 °F94 %29.84 in10.0 miESE (120°)6.9 mphOvercast
12:39 AM77.0 °F75.2 °F94 %29.84 in10.0 miESE (110°)5.8 mphMostly Cloudy
12:41 AM77.0 °F75.2 °F94 %29.84 in10.0 miESE (110°)6.9 mphMostly Cloudy
12:44 AM77.0 °F75.2 °F94 %29.84 in10.0 miESE (110°)6.9 mphMostly Cloudy
12:46 AM77.0 °F75.2 °F94 %29.84 in10.0 miESE (110°)6.9 mphMostly Cloudy
12:55 AM77.4 °F75.4 °F94 %29.84 in10.0 miESE (110°)5.8 mphOvercast
1:55 AM77.5 °F74.5 °F90 %29.83 in10.0 miESE (120°)4.6 mphMostly Cloudy
2:55 AM77.0 °F75.0 °F94 %29.81 in10.0 miENE (70°)3.5 mphClear
3:55 AM76.3 °F74.1 °F93 %29.81 in10.0 miENE (60°)4.6 mphClear
4:55 AM76.3 °F73.9 °F92 %29.82 in10.0 miNE (40°)3.5 mphClear
5:55 AM76.8 °F74.8 °F94 %29.83 in10.0 miCalmClear
6:55 AM78.8 °F75.9 °F91 %29.84 in10.0 miENE (70°)3.5 mphPartly Cloudy
7:10 AM78.8 °F75.2 °F89 %29.85 in10.0 miENE (70°)4.6 mphMostly Cloudy
7:17 AM78.8 °F75.2 °F89 %29.85 in10.0 miENE (60°)4.6 mphScattered Clouds
7:55 AM81.5 °F75.6 °F82 %29.86 in10.0 miENE (60°)6.9 mphPartly Cloudy
8:10 AM82.4 °F75.2 °F79 %29.86 in10.0 miENE (70°)5.8 mphMostly Cloudy
8:24 AM82.4 °F75.2 °F79 %29.86 in10.0 miENE (60°)8.1 mphMostly Cloudy
8:42 AM82.4 °F77.0 °F84 %29.87 in10.0 miEast (80°)8.1 mphOvercast
8:46 AM82.4 °F77.0 °F84 %29.87 in10.0 miENE (70°)9.2 mphOvercast
8:51 AM82.4 °F77.0 °F84 %29.87 in10.0 miENE (70°)10.4 mphMostly Cloudy
8:55 AM83.1 °F76.3 °F80 %29.87 in10.0 miENE (70°)9.2 mphMostly Cloudy
9:05 AM82.4 °F77.0 °F84 %29.87 in10.0 miENE (70°)10.4 mphScattered Clouds
9:21 AM84.2 °F77.0 °F79 %29.87 in10.0 miEast (80°)8.1 mphMostly Cloudy
9:24 AM84.2 °F77.0 °F79 %29.87 in10.0 miEast (100°)10.4 mphScattered Clouds
9:31 AM82.4 °F75.2 °F79 %29.87 in10.0 miEast (90°)8.1 mphMostly Cloudy
9:39 AM82.4 °F77.0 °F84 %29.87 in10.0 miEast (100°)9.2 mphMostly Cloudy
9:40 AM82.4 °F77.0 °F84 %29.88 in10.0 miEast (90°)10.4 mphMostly Cloudy
9:42 AM82.4 °F77.0 °F84 %29.88 in10.0 miEast (100°)10.4 mphMostly Cloudy
9:55 AM83.3 °F76.1 °F79 %29.88 in10.0 miEast (90°)9.2 mphMostly Cloudy
10:04 AM84.2 °F75.2 °F74 %29.88 in10.0 miEast (90°)10.4 mphScattered Clouds
10:55 AM83.8 °F76.1 °F77 %29.87 in10.0 miEast (100°)9.2 mphScattered Clouds
11:55 AM84.9 °F76.3 °F75 %29.86 in10.0 miENE (70°)11.5 mphScattered Clouds
12:30 PM84.2 °F75.2 °F74 %29.85 in10.0 miESE (110°)9.2 mphMostly Cloudy
12:39 PM84.2 °F75.2 °F74 %29.85 in10.0 miEast (100°)8.1 mphMostly Cloudy
12:55 PM84.9 °F75.9 °F74 %29.84 in10.0 miEast (90°)8.1 mphScattered Clouds
1:55 PM83.8 °F75.2 °F75 %29.83 in10.0 miESE (110°)9.2 mphScattered Clouds
2:12 PM84.2 °F75.2 °F74 %29.82 in10.0 miSE (130°)8.1 mphMostly Cloudy
2:25 PM84.2 °F75.2 °F74 %29.82 in10.0 miEast (100°)10.4 mphScattered Clouds
2:46 PM84.2 °F75.2 °F74 %29.81 in10.0 miEast (90°)9.2 mphMostly Cloudy
2:55 PM83.7 °F75.4 °F76 %29.81 in10.0 miEast (100°)8.1 mphMostly Cloudy
3:02 PM84.2 °F75.2 °F74 %29.81 in10.0 miEast (100°)8.1 mphScattered Clouds
3:55 PM84.2 °F75.4 °F75 %29.80 in10.0 miEast (90°)10.4 mphPartly Cloudy
4:55 PM83.3 °F72.9 °F71 %29.80 in10.0 miEast (100°)8.1 mphPartly Cloudy
5:55 PM81.5 °F72.3 °F74 %29.81 in10.0 miEast (80°)6.9 mphScattered Clouds
6:55 PM80.2 °F73.9 °F81 %29.83 in10.0 miEast (80°)6.9 mphPartly Cloudy
7:55 PM80.1 °F72.1 °F77 %29.84 in10.0 miEast (90°)5.8 mphClear
8:33 PM80.6 °F75.2 °F84 %29.86 in10.0 miENE (60°)12.7 mphMostly Cloudy
8:40 PM78.8 °F73.4 °F83 %29.86 in10.0 miENE (70°)12.7 mphMostly Cloudy
8:55 PM77.9 °F72.0 °F82 %29.86 in10.0 miENE (60°)8.1 mphMostly Cloudy
9:55 PM78.8 °F74.5 °F87 %29.88 in10.0 miNE (50°)9.2 mphScattered Clouds
9:58 PM78.8 °F75.2 °F89 %29.88 in9.0 miENE (60°)9.2 mphRainLight Rain
10:03 PM78.8 °F75.2 °F89 %29.88 in5.0 miENE (60°)5.8 mphRainRain
10:11 PM77.0 °F75.2 °F94 %29.88 in9.0 miEast (80°)15.0 mphMostly Cloudy
10:14 PM78.8 °F75.2 °F89 %29.88 in10.0 miEast (80°)12.7 mphMostly Cloudy
10:19 PM78.8 °F75.2 °F89 %29.89 in10.0 miEast (90°)16.1 mph27.6 mphMostly Cloudy
10:24 PM77.0 °F75.2 °F94 %29.89 in10.0 miEast (100°)15.0 mph27.6 mphOvercast
10:27 PM77.0 °F75.2 °F94 %29.89 in10.0 miESE (110°)11.5 mphOvercast
10:30 PM77.0 °F75.2 °F94 %29.89 in10.0 miESE (120°)13.8 mphLight Drizzle
10:35 PM77.0 °F75.2 °F94 %29.89 in10.0 miESE (120°)12.7 mphLight Drizzle
10:40 PM77.0 °F75.2 °F94 %29.88 in9.0 miESE (120°)11.5 mphOvercast
10:46 PM77.0 °F75.2 °F94 %29.88 in7.0 miSE (130°)8.1 mphLight Drizzle
10:48 PM77.0 °F75.2 °F94 %29.88 in6.0 miSE (130°)6.9 mphLight Drizzle
10:55 PM76.1 °F74.3 °F94 %29.88 in8.0 miESE (120°)5.8 mph0.01 inLight Drizzle
10:56 PM77.0 °F75.2 °F94 %29.88 in9.0 miESE (120°)5.8 mphOvercast
11:55 PM76.8 °F74.7 °F93 %29.88 in10.0 miENE (60°)6.9 mphMostly Cloudy
Hourly data recorded from PGUA, located miles away from Merizo, Guam







STORIES FROM OUR PARTNERS